Weather History for Kirksville, MO

Change the Weather History Date:

Monday, December 3, 2012

  Actual Average Record
Temperature  
Mean Temperature 60 °F 32 °F  
Max Temperature 71 °F 41 °F 71 °F (2012)
Min Temperature 48 °F 24 °F -5 °F (1929)
Degree Days  
Heating Degree Days 5 33  
Month to date heating degree days 36 97  
Since 1 July heating degree days 1306 1318  
Cooling Degree Days 0 0  
Month to date cooling degree days 0 0  
Year to date cooling degree days 1321 939  
Growing Degree Days 9 (Base 50)    
Moisture  
Dew Point 51 °F    
Average Humidity 79    
Maximum Humidity 100    
Minimum Humidity 57    
Precipitation  
Precipitation 0.01 in 0.06 in 0.80 in (1923)
Month to date precipitation 0.01 0.20  
Year to date precipitation 26.43 37.76  
Sea Level Pressure  
Sea Level Pressure 29.86 in    
Wind  
Wind Speed 13 mph (South)    
Max Wind Speed 28 mph    
Max Gust Speed 36 mph    
Visibility 8 miles    
Events      
T = Trace of Precipitation, MM = Missing Value Source: NWS Daily Summary

Daily Weather History Graph

Daily Weather History Graph

Search for Another Location

Airport:

Trip Planner

Search our weather history database for the weather conditions in past years. The results will help you decide how hot, cold, wet, or windy it might be!

Date:

Astronomy

Dec. 03, 2012 Rise Set
Actual Time 7:15 AM CST 4:44 PM CST
Civil Twilight 6:45 AM CST 5:14 PM CST
Nautical Twilight 6:11 AM CST 5:48 PM CST
Astronomical Twilight 5:38 AM CST 6:21 PM CST
Moon 9:32 PM CST (12/3) 10:39 AM CST (12/3)
Length of Visible Light 10h 29m
Length of Day
9h 29m
Waning Gibbous, 78% of the Moon is Illuminated
Dec 3
Waning Gibbous
Dec 6
Last Quarter
Dec 13
New
Dec 19
First Quarter
Dec 28
Full

Hourly Weather History & Observations

Time (CST) Temp. Dew Point Humidity Pressure Visibility Wind Dir Wind Speed Gust Speed Precip Events Conditions
12:34 AM 48.2 °F 48.2 °F 100% 29.93 in 0.8 mi SE 5.8 mph - N/A   Overcast
12:45 AM 48.2 °F 48.2 °F 100% 29.93 in 1.8 mi SE 4.6 mph - N/A   Overcast
12:55 AM 48.9 °F 48.9 °F 100% 29.94 in 2.0 mi SE 4.6 mph - N/A   Mostly Cloudy
1:37 AM 50.0 °F 48.2 °F 94% 29.91 in 3.0 mi SE 6.9 mph - N/A   Mostly Cloudy
1:55 AM 50.0 °F 48.9 °F 96% 29.93 in 3.0 mi SE 6.9 mph - N/A   Scattered Clouds
2:55 AM 48.9 °F 48.9 °F 100% 29.90 in 3.0 mi SSE 5.8 mph - N/A   Clear
3:55 AM 51.1 °F 50.0 °F 96% 29.88 in 3.0 mi South 9.2 mph - N/A   Partly Cloudy
4:55 AM 52.0 °F 52.0 °F 100% 29.85 in 4.0 mi SE 10.4 mph - N/A   Partly Cloudy
5:55 AM 60.1 °F 57.0 °F 90% 29.83 in 10.0 mi South 15.0 mph 26.5 mph 0.01 in   Clear
6:55 AM 60.1 °F 57.0 °F 90% 29.83 in 10.0 mi South 13.8 mph 24.2 mph N/A   Clear
7:55 AM 60.1 °F 57.0 °F 90% 29.83 in 10.0 mi South 13.8 mph - N/A   Clear
8:55 AM 63.0 °F 57.9 °F 84% 29.81 in 10.0 mi South 18.4 mph 26.5 mph N/A   Clear
9:52 AM 66.2 °F 57.2 °F 73% 29.79 in 10.0 mi South 23.0 mph 32.2 mph N/A   Mostly Cloudy
9:55 AM 66.0 °F 57.9 °F 75% 29.79 in 10.0 mi South 16.1 mph 31.1 mph N/A   Mostly Cloudy
10:55 AM 68.0 °F 57.9 °F 70% 29.77 in 10.0 mi SSW 20.7 mph 31.1 mph N/A   Mostly Cloudy
11:38 AM 69.8 °F 57.2 °F 64% 29.76 in 10.0 mi SSW 23.0 mph 29.9 mph N/A   Mostly Cloudy
11:55 AM 69.1 °F 57.0 °F 65% 29.76 in 10.0 mi SSW 17.3 mph 28.8 mph N/A   Overcast
12:55 PM 69.8 °F 55.4 °F 60% 29.75 in 10.0 mi SSW 27.6 mph 35.7 mph N/A   Overcast
1:55 PM 70.0 °F 54.0 °F 57% 29.77 in 10.0 mi SW 21.9 mph 34.5 mph N/A   Overcast
2:55 PM 70.0 °F 55.0 °F 59% 29.78 in 10.0 mi SW 12.7 mph 26.5 mph N/A   Mostly Cloudy
3:55 PM 69.1 °F 54.0 °F 58% 29.80 in 10.0 mi SW 18.4 mph 27.6 mph N/A   Clear
4:55 PM 66.9 °F 54.0 °F 63% 29.83 in 10.0 mi SW 13.8 mph 19.6 mph N/A   Partly Cloudy
5:55 PM 66.0 °F 55.0 °F 68% 29.84 in 10.0 mi SW 10.4 mph - N/A   Overcast
6:55 PM 60.1 °F 48.0 °F 64% 29.90 in 10.0 mi NW 10.4 mph - N/A   Overcast
7:55 PM 57.0 °F 43.0 °F 59% 29.94 in 10.0 mi NNW 10.4 mph - N/A   Overcast
8:55 PM 55.9 °F 42.1 °F 60% 29.96 in 10.0 mi NNW 12.7 mph - N/A   Overcast
9:55 PM 54.0 °F 42.1 °F 64% 29.99 in 10.0 mi North 11.5 mph - N/A   Overcast
10:55 PM 51.1 °F 39.0 °F 63% 30.00 in 10.0 mi North 8.1 mph - N/A   Clear
11:55 PM 48.0 °F 37.9 °F 68% 30.02 in 10.0 mi North 8.1 mph - N/A   Clear